| time (UTC) | temp F | wind direction | speed MPH | gust MPH | rain 1hr in | rain 24hr in | rain mn in | humidity % | barometer mb |
| 20260831004140 | 83 | 138 | 4.0 | 11.0 | 0.00 | 0.00 | 0.00 | 65 | 1007.3 |
| 20260831003646 | 83 | 156 | 4.0 | 11.0 | 0.00 | 0.00 | 0.00 | 66 | 1007.3 |
| 20260831003131 | 84 | 124 | 3.0 | 10.0 | 0.00 | 0.00 | 0.00 | 67 | 1007.2 |
| 20260831002633 | 84 | 149 | 2.0 | 5.0 | 0.00 | 0.00 | 0.00 | 67 | 1007.1 |
| 20260831002402 | 84 | 151 | 3.0 | 7.0 | 0.00 | 0.00 | 0.00 | 67 | 1007.0 |
| 20260831001631 | 85 | 142 | 4.0 | 9.0 | 0.00 | 0.00 | 0.00 | 66 | 1006.9 |
| 20260831001348 | 85 | 71 | 4.0 | 9.0 | 0.00 | 0.00 | 0.00 | 66 | 1006.9 |
| 20260831000631 | 85 | 182 | 3.0 | 7.0 | 0.00 | 0.00 | 0.00 | 66 | 1007.0 |
| 20260831000130 | 85 | 140 | 4.0 | 8.0 | 0.00 | 0.00 | 0.00 | 66 | 1007.0 |
| 20260830235634 | 86 | 148 | 4.0 | 9.0 | 0.00 | 0.00 | 0.00 | 66 | 1006.8 |
| 20260830235347 | 86 | 121 | 3.0 | 9.0 | 0.00 | 0.00 | 0.00 | 66 | 1006.8 |
| 20260830234630 | 86 | 146 | 3.0 | 9.0 | 0.00 | 0.00 | 0.00 | 67 | 1007.1 |
| 20260830234129 | 86 | 159 | 3.0 | 11.0 | 0.00 | 0.00 | 0.00 | 67 | 1007.1 |
| 20260830233853 | 86 | 145 | 3.0 | 13.0 | 0.00 | 0.00 | 0.00 | 67 | 1007.0 |
| 20260830233125 | 86 | 211 | 3.0 | 13.0 | 0.00 | 0.00 | 0.00 | 69 | 1007.1 |
| 20260830232632 | 86 | 143 | 2.0 | 7.0 | 0.00 | 0.00 | 0.00 | 70 | 1006.9 |
| 20260830232123 | 86 | 140 | 2.0 | 7.0 | 0.00 | 0.00 | 0.00 | 70 | 1006.9 |
| 20260830231842 | 86 | 137 | 3.0 | 7.0 | 0.00 | 0.00 | 0.00 | 69 | 1007.0 |
| 20260830231349 | 86 | 129 | 3.0 | 10.0 | 0.00 | 0.00 | 0.00 | 69 | 1007.1 |
| 20260830230622 | 86 | 88 | 3.0 | 10.0 | 0.00 | 0.00 | 0.00 | 69 | 1007.2 |
| 20260830230125 | 86 | 172 | 3.0 | 8.0 | 0.00 | 0.00 | 0.00 | 69 | 1007.1 |
| 20260830225620 | 86 | 180 | 4.0 | 10.0 | 0.00 | 0.00 | 0.00 | 69 | 1007.0 |
| 20260830225121 | 86 | 69 | 4.0 | 10.0 | 0.00 | 0.00 | 0.00 | 69 | 1006.9 |
| 20260830224619 | 86 | 151 | 4.0 | 9.0 | 0.00 | 0.00 | 0.00 | 70 | 1006.9 |
| 20260830224119 | 85 | 103 | 3.0 | 8.0 | 0.00 | 0.00 | 0.00 | 70 | 1006.9 |
| 20260830223618 | 85 | 148 | 3.0 | 7.0 | 0.00 | 0.00 | 0.00 | 70 | 1006.9 |
| 20260830223115 | 85 | 78 | 3.0 | 9.0 | 0.00 | 0.00 | 0.00 | 70 | 1006.8 |
| 20260830222616 | 85 | 44 | 2.0 | 10.0 | 0.00 | 0.00 | 0.00 | 69 | 1006.8 |
| 20260830222115 | 85 | 84 | 2.0 | 10.0 | 0.00 | 0.00 | 0.00 | 70 | 1006.9 |
| 20260830222105 | 85 | 105 | 3.0 | 7.0 | 0.00 | 0.00 | 0.00 | 70 | 1006.9 |
| 20260830221113 | 85 | 84 | 2.0 | 6.0 | 0.00 | 0.00 | 0.00 | 70 | 1006.9 |
| 20260830220615 | 85 | 175 | 3.0 | 10.0 | 0.00 | 0.00 | 0.00 | 69 | 1006.9 |
| 20260830220125 | 85 | 82 | 3.0 | 10.0 | 0.00 | 0.00 | 0.00 | 68 | 1006.9 |
| 20260830215613 | 86 | 169 | 3.0 | 9.0 | 0.00 | 0.00 | 0.00 | 69 | 1006.9 |
| 20260830215110 | 86 | 159 | 3.0 | 9.0 | 0.00 | 0.00 | 0.00 | 69 | 1006.9 |
| 20260830214836 | 86 | 103 | 4.0 | 11.0 | 0.00 | 0.00 | 0.00 | 68 | 1007.0 |
| 20260830214111 | 86 | 104 | 5.0 | 11.0 | 0.00 | 0.00 | 0.00 | 68 | 1007.1 |
| 20260830213610 | 86 | 69 | 5.0 | 11.0 | 0.00 | 0.00 | 0.00 | 68 | 1007.1 |
| 20260830213111 | 86 | 63 | 4.0 | 11.0 | 0.00 | 0.00 | 0.00 | 68 | 1007.2 |
| 20260830212611 | 86 | 86 | 4.0 | 10.0 | 0.00 | 0.00 | 0.00 | 69 | 1007.3 |
| 20260830212111 | 85 | 146 | 4.0 | 10.0 | 0.00 | 0.00 | 0.00 | 69 | 1007.3 |
| 20260830211610 | 86 | 161 | 3.0 | 9.0 | 0.00 | 0.00 | 0.00 | 68 | 1007.3 |
| 20260830211111 | 86 | 135 | 3.0 | 9.0 | 0.00 | 0.00 | 0.00 | 68 | 1007.3 |
| 20260830210611 | 85 | 150 | 4.0 | 9.0 | 0.00 | 0.00 | 0.00 | 69 | 1007.4 |
| 20260830210335 | 86 | 135 | 4.0 | 9.0 | 0.00 | 0.00 | 0.00 | 68 | 1007.4 |
| 20260830205610 | 86 | 162 | 4.0 | 9.0 | 0.00 | 0.00 | 0.00 | 68 | 1007.4 |
| 20260830205110 | 86 | 151 | 4.0 | 9.0 | 0.00 | 0.00 | 0.00 | 67 | 1007.5 |
| 20260830204610 | 86 | 157 | 4.0 | 13.0 | 0.00 | 0.00 | 0.00 | 67 | 1007.5 |
| 20260830204111 | 86 | 142 | 3.0 | 13.0 | 0.00 | 0.00 | 0.00 | 66 | 1007.5 |
| 20260830203609 | 86 | 149 | 4.0 | 9.0 | 0.00 | 0.00 | 0.00 | 67 | 1007.6 |
| 20260830203110 | 86 | 168 | 5.0 | 11.0 | 0.00 | 0.00 | 0.00 | 66 | 1007.7 |
| 20260830202831 | 87 | 91 | 6.0 | 15.0 | 0.00 | 0.00 | 0.00 | 66 | 1007.8 |
| 20260830202110 | 86 | 66 | 6.0 | 15.0 | 0.00 | 0.00 | 0.00 | 66 | 1007.7 |
| 20260830201605 | 85 | 70 | 5.0 | 16.0 | 0.00 | 0.00 | 0.00 | 67 | 1007.7 |
| 20260830201107 | 85 | 66 | 5.0 | 16.0 | 0.00 | 0.00 | 0.00 | 68 | 1007.7 |
| 20260830200606 | 85 | 76 | 4.0 | 15.0 | 0.00 | 0.00 | 0.00 | 68 | 1007.7 |
| 20260830200338 | 85 | 131 | 5.0 | 14.0 | 0.00 | 0.00 | 0.00 | 69 | 1007.6 |
| 20260830195606 | 85 | 47 | 5.0 | 14.0 | 0.00 | 0.00 | 0.00 | 69 | 1007.6 |
| 20260830195105 | 84 | 88 | 5.0 | 14.0 | 0.00 | 0.00 | 0.00 | 69 | 1007.7 |
| 20260830194828 | 84 | 106 | 5.0 | 14.0 | 0.00 | 0.00 | 0.00 | 69 | 1007.8 |
| 20260830194107 | 84 | 80 | 5.0 | 15.0 | 0.00 | 0.00 | 0.00 | 70 | 1007.6 |
| 20260830193603 | 84 | 77 | 5.0 | 15.0 | 0.00 | 0.00 | 0.00 | 70 | 1007.6 |
| 20260830193101 | 83 | 67 | 5.0 | 14.0 | 0.00 | 0.00 | 0.00 | 70 | 1007.7 |
| 20260830192824 | 84 | 171 | 4.0 | 14.0 | 0.00 | 0.00 | 0.00 | 71 | 1007.7 |
| 20260830192101 | 83 | 76 | 4.0 | 16.0 | 0.00 | 0.00 | 0.00 | 71 | 1007.7 |
| 20260830191600 | 83 | 136 | 5.0 | 16.0 | 0.00 | 0.00 | 0.00 | 70 | 1007.7 |
| 20260830191100 | 83 | 65 | 5.0 | 14.0 | 0.00 | 0.00 | 0.00 | 71 | 1007.9 |
| 20260830190601 | 83 | 77 | 4.0 | 14.0 | 0.00 | 0.00 | 0.00 | 71 | 1007.9 |
| 20260830190334 | 83 | 86 | 4.0 | 12.0 | 0.00 | 0.00 | 0.00 | 72 | 1007.8 |
| 20260830185555 | 83 | 108 | 3.0 | 12.0 | 0.00 | 0.00 | 0.00 | 72 | 1008.0 |
| 20260830185053 | 83 | 66 | 4.0 | 15.0 | 0.00 | 0.00 | 0.00 | 73 | 1008.4 |
| 20260830184812 | 82 | 159 | 5.0 | 15.0 | 0.00 | 0.00 | 0.00 | 74 | 1008.5 |
| 20260830184316 | 82 | 81 | 5.0 | 13.0 | 0.00 | 0.00 | 0.00 | 73 | 1008.5 |
| 20260830183753 | 81 | 62 | 4.0 | 11.0 | 0.00 | 0.00 | 0.00 | 75 | 1008.5 |
| 20260830183645 | 82 | 146 | 6.0 | 15.0 | 0.00 | 0.00 | 0.00 | 75 | 1008.6 |
| 20260830182544 | 81 | 67 | 4.0 | 11.0 | 0.00 | 0.00 | 0.00 | 74 | 1008.3 |
| 20260830182044 | 81 | 22 | 5.0 | 16.0 | 0.00 | 0.00 | 0.00 | 76 | 1008.3 |
| 20260830181544 | 81 | 94 | 4.0 | 16.0 | 0.00 | 0.00 | 0.00 | 75 | 1008.3 |
| 20260830181044 | 81 | 98 | 2.0 | 9.0 | 0.00 | 0.00 | 0.00 | 77 | 1008.6 |
| 20260830180544 | 81 | 96 | 2.0 | 9.0 | 0.00 | 0.00 | 0.00 | 77 | 1008.8 |
| 20260830180042 | 80 | 140 | 2.0 | 7.0 | 0.00 | 0.00 | 0.00 | 77 | 1008.7 |
| 20260830175803 | 80 | 148 | 2.0 | 8.0 | 0.00 | 0.00 | 0.00 | 78 | 1008.7 |
| 20260830175042 | 80 | 107 | 2.0 | 8.0 | 0.00 | 0.00 | 0.00 | 79 | 1008.9 |
| 20260830174539 | 79 | 115 | 3.0 | 8.0 | 0.00 | 0.00 | 0.00 | 79 | 1009.0 |
| 20260830174040 | 79 | 78 | 3.0 | 9.0 | 0.00 | 0.00 | 0.00 | 79 | 1009.0 |
| 20260830173539 | 78 | 91 | 3.0 | 9.0 | 0.00 | 0.00 | 0.00 | 79 | 1009.0 |
| 20260830173037 | 78 | 89 | 2.0 | 7.0 | 0.00 | 0.00 | 0.00 | 79 | 1009.1 |
| 20260830172538 | 79 | 134 | 1.0 | 6.0 | 0.00 | 0.00 | 0.00 | 78 | 1009.1 |
| 20260830172037 | 79 | 122 | 2.0 | 8.0 | 0.00 | 0.00 | 0.00 | 79 | 1009.1 |
| 20260830171536 | 78 | 90 | 3.0 | 9.0 | 0.00 | 0.00 | 0.00 | 79 | 1009.1 |
| 20260830171037 | 78 | 123 | 3.0 | 9.0 | 0.00 | 0.00 | 0.00 | 79 | 1009.0 |
| 20260830170538 | 79 | 78 | 3.0 | 8.0 | 0.00 | 0.00 | 0.00 | 78 | 1009.1 |
| 20260830170040 | 79 | 88 | 2.0 | 9.0 | 0.00 | 0.00 | 0.00 | 78 | 1009.1 |
| 20260830170030 | 79 | 90 | 2.0 | 9.0 | 0.00 | 0.00 | 0.00 | 78 | 1009.1 |
| 20260830165039 | 79 | 107 | 4.0 | 11.0 | 0.00 | 0.00 | 0.00 | 79 | 1009.1 |
| 20260830164537 | 78 | 147 | 4.0 | 11.0 | 0.00 | 0.00 | 0.00 | 80 | 1009.0 |
| 20260830164038 | 78 | 74 | 3.0 | 10.0 | 0.00 | 0.00 | 0.00 | 79 | 1008.9 |
| 20260830163537 | 78 | 69 | 2.0 | 8.0 | 0.00 | 0.00 | 0.00 | 79 | 1008.8 |
| 20260830163037 | 77 | 109 | 3.0 | 8.0 | 0.00 | 0.00 | 0.00 | 80 | 1008.6 |
| 20260830162537 | 77 | 81 | 3.0 | 8.0 | 0.00 | 0.00 | 0.00 | 80 | 1008.5 |
| 20260830162037 | 77 | 329 | 3.0 | 13.0 | 0.00 | 0.00 | 0.00 | 81 | 1008.4 |
| 20260830161539 | 77 | 90 | 4.0 | 13.0 | 0.00 | 0.00 | 0.00 | 81 | 1008.6 |
| 20260830161037 | 76 | 86 | 3.0 | 10.0 | 0.00 | 0.00 | 0.00 | 80 | 1008.3 |
| 20260830160536 | 76 | 321 | 4.0 | 10.0 | 0.00 | 0.00 | 0.00 | 81 | 1008.3 |
| 20260830160031 | 76 | 61 | 5.0 | 11.0 | 0.00 | 0.00 | 0.00 | 81 | 1008.3 |
| 20260830155530 | 76 | 79 | 5.0 | 11.0 | 0.00 | 0.00 | 0.00 | 81 | 1008.4 |
| 20260830155029 | 76 | 52 | 4.0 | 11.0 | 0.00 | 0.00 | 0.00 | 80 | 1008.5 |
| 20260830154531 | 77 | 31 | 3.0 | 9.0 | 0.00 | 0.00 | 0.00 | 80 | 1008.3 |
| 20260830154031 | 77 | 75 | 3.0 | 8.0 | 0.00 | 0.00 | 0.00 | 81 | 1008.3 |
| 20260830153529 | 76 | 79 | 3.0 | 11.0 | 0.00 | 0.00 | 0.00 | 81 | 1008.4 |
| 20260830153030 | 76 | 109 | 3.0 | 11.0 | 0.00 | 0.00 | 0.00 | 81 | 1008.4 |
| 20260830152529 | 76 | 80 | 3.0 | 9.0 | 0.00 | 0.00 | 0.00 | 81 | 1008.4 |
| 20260830152029 | 77 | 94 | 2.0 | 8.0 | 0.00 | 0.00 | 0.00 | 79 | 1008.1 |
| 20260830151531 | 77 | 34 | 1.0 | 8.0 | 0.00 | 0.00 | 0.00 | 81 | 1008.5 |
| 20260830151030 | 76 | 331 | 1.0 | 8.0 | 0.00 | 0.00 | 0.00 | 82 | 1008.5 |
| 20260830150529 | 76 | 65 | 1.0 | 5.0 | 0.00 | 0.00 | 0.00 | 84 | 1008.4 |
| 20260830150246 | 75 | 92 | 2.0 | 9.0 | 0.00 | 0.00 | 0.00 | 84 | 1008.3 |
| 20260830145527 | 75 | 315 | 3.0 | 9.0 | 0.00 | 0.00 | 0.00 | 83 | 1008.4 |
| 20260830145026 | 74 | 90 | 3.0 | 10.0 | 0.00 | 0.00 | 0.00 | 85 | 1008.1 |
| 20260830144523 | 74 | 83 | 2.0 | 10.0 | 0.00 | 0.00 | 0.00 | 84 | 1008.2 |
| 20260830144028 | 74 | 92 | 2.0 | 5.0 | 0.00 | 0.00 | 0.00 | 86 | 1008.3 |
| 20260830143728 | 73 | 170 | 2.0 | 5.0 | 0.00 | 0.00 | 0.00 | 88 | 1008.4 |
| 20260830142959 | 72 | 95 | 2.0 | 8.0 | 0.00 | 0.00 | 0.00 | 87 | 1008.3 |
| 20260830142454 | 72 | 87 | 3.0 | 8.0 | 0.00 | 0.00 | 0.00 | 88 | 1008.2 |
| 20260830141954 | 72 | 81 | 3.0 | 9.0 | 0.00 | 0.00 | 0.00 | 88 | 1008.4 |
| 20260830141455 | 72 | 85 | 3.0 | 9.0 | 0.00 | 0.00 | 0.00 | 88 | 1008.5 |
| 20260830141446 | 72 | 176 | 2.0 | 7.0 | 0.00 | 0.00 | 0.00 | 88 | 1008.8 |
| 20260830140454 | 72 | 86 | 1.0 | 5.0 | 0.00 | 0.00 | 0.00 | 88 | 1008.9 |
| 20260830135953 | 72 | 196 | 1.0 | 5.0 | 0.00 | 0.00 | 0.00 | 89 | 1008.9 |
| 20260830135453 | 71 | 96 | 1.0 | 5.0 | 0.00 | 0.00 | 0.00 | 90 | 1008.9 |
| 20260830135215 | 71 | 74 | 1.0 | 5.0 | 0.00 | 0.00 | 0.00 | 91 | 1008.7 |
| 20260830134454 | 70 | 87 | 1.0 | 7.0 | 0.00 | 0.00 | 0.00 | 91 | 1008.5 |
| 20260830133950 | 70 | 101 | 2.0 | 7.0 | 0.00 | 0.00 | 0.00 | 91 | 1008.6 |
| 20260830133446 | 70 | 86 | 1.0 | 7.0 | 0.00 | 0.00 | 0.00 | 91 | 1008.5 |
| 20260830132946 | 70 | 103 | 1.0 | 3.0 | 0.00 | 0.00 | 0.00 | 92 | 1008.6 |
| 20260830132445 | 70 | 65 | 1.0 | 6.0 | 0.00 | 0.00 | 0.00 | 92 | 1008.5 |
| 20260830132211 | 69 | 53 | 1.0 | 6.0 | 0.00 | 0.00 | 0.00 | 92 | 1008.5 |
| 20260830131443 | 69 | 61 | 1.0 | 6.0 | 0.00 | 0.00 | 0.00 | 93 | 1008.4 |
| 20260830130942 | 69 | 98 | 1.0 | 3.0 | 0.00 | 0.00 | 0.00 | 93 | 1008.5 |
| 20260830130435 | 69 | 80 | 2.0 | 7.0 | 0.00 | 0.00 | 0.00 | 93 | 1008.4 |
| 20260830125936 | 69 | 97 | 2.0 | 7.0 | 0.00 | 0.00 | 0.00 | 93 | 1008.3 |
| 20260830125435 | 69 | 92 | 1.0 | 5.0 | 0.00 | 0.00 | 0.00 | 93 | 1008.6 |
| 20260830124935 | 69 | 76 | 1.0 | 5.0 | 0.00 | 0.00 | 0.00 | 93 | 1008.4 |
| 20260830124435 | 69 | 61 | 1.0 | 5.0 | 0.00 | 0.00 | 0.00 | 93 | 1008.4 |
| 20260830123938 | 69 | 81 | 1.0 | 3.0 | 0.00 | 0.00 | 0.00 | 93 | 1008.7 |
| 20260830123656 | 69 | 67 | 1.0 | 5.0 | 0.00 | 0.00 | 0.00 | 93 | 1008.7 |
| 20260830122936 | 68 | 86 | 2.0 | 5.0 | 0.00 | 0.01 | 0.00 | 93 | 1008.5 |
| 20260830122435 | 68 | 71 | 2.0 | 5.0 | 0.00 | 0.01 | 0.00 | 93 | 1008.5 |
| 20260830121935 | 68 | 80 | 2.0 | 7.0 | 0.00 | 0.01 | 0.00 | 93 | 1008.3 |
| 20260830121437 | 68 | 73 | 1.0 | 7.0 | 0.00 | 0.01 | 0.00 | 93 | 1008.3 |
| 20260830120936 | 68 | 86 | 1.0 | 5.0 | 0.00 | 0.02 | 0.00 | 93 | 1008.5 |
| 20260830120436 | 68 | 87 | 1.0 | 5.0 | 0.00 | 0.05 | 0.00 | 93 | 1008.4 |
| 20260830120419 | 68 | 85 | 1.0 | 5.0 | 0.00 | 0.07 | 0.00 | 93 | 1008.4 |
| 20260830115436 | 68 | 81 | 2.0 | 7.0 | 0.00 | 0.09 | 0.00 | 93 | 1008.1 |
| 20260830115158 | 68 | 72 | 3.0 | 7.0 | 0.00 | 0.11 | 0.00 | 93 | 1007.9 |
| 20260830114435 | 68 | 88 | 3.0 | 7.0 | 0.00 | 0.13 | 0.00 | 93 | 1007.8 |
| 20260830113935 | 68 | 82 | 3.0 | 7.0 | 0.00 | 0.13 | 0.00 | 93 | 1007.9 |
| 20260830113437 | 68 | 78 | 3.0 | 7.0 | 0.00 | 0.14 | 0.00 | 93 | 1007.8 |
| 20260830112935 | 68 | 53 | 3.0 | 7.0 | 0.00 | 0.14 | 0.00 | 93 | 1008.0 |
| 20260830112436 | 68 | 88 | 3.0 | 7.0 | 0.00 | 0.15 | 0.00 | 93 | 1008.0 |
| 20260830111932 | 68 | 76 | 2.0 | 6.0 | 0.00 | 0.15 | 0.00 | 93 | 1008.1 |
| 20260830111431 | 68 | 86 | 2.0 | 6.0 | 0.00 | 0.16 | 0.00 | 93 | 1008.2 |
| 20260830110932 | 68 | 61 | 3.0 | 6.0 | 0.00 | 0.17 | 0.00 | 93 | 1008.1 |
| 20260830110432 | 68 | 83 | 3.0 | 6.0 | 0.00 | 0.18 | 0.00 | 92 | 1008.3 |
| 20260830105932 | 68 | 80 | 2.0 | 6.0 | 0.00 | 0.19 | 0.00 | 92 | 1008.3 |
| 20260830105430 | 68 | 100 | 1.0 | 5.0 | 0.00 | 0.20 | 0.00 | 92 | 1008.4 |
| 20260830104933 | 68 | 90 | 0.0 | 5.0 | 0.00 | 0.22 | 0.00 | 92 | 1008.4 |
| 20260830104432 | 68 | 86 | 1.0 | 5.0 | 0.00 | 0.23 | 0.00 | 92 | 1008.4 |
| 20260830103931 | 68 | 92 | 1.0 | 5.0 | 0.00 | 0.24 | 0.00 | 92 | 1008.3 |
| 20260830103431 | 68 | 79 | 1.0 | 5.0 | 0.00 | 0.24 | 0.00 | 92 | 1008.3 |
| 20260830102945 | 68 | 81 | 1.0 | 3.0 | 0.00 | 0.25 | 0.00 | 92 | 1008.5 |
| 20260830102431 | 69 | 81 | 1.0 | 5.0 | 0.00 | 0.25 | 0.00 | 92 | 1008.6 |
| 20260830101931 | 69 | 76 | 1.0 | 5.0 | 0.00 | 0.26 | 0.00 | 92 | 1008.6 |
| 20260830101919 | 69 | 79 | 1.0 | 6.0 | 0.00 | 0.26 | 0.00 | 92 | 1008.4 |
| 20260830100931 | 69 | 81 | 1.0 | 6.0 | 0.00 | 0.27 | 0.00 | 92 | 1008.3 |
| 20260830100432 | 69 | 81 | 1.0 | 7.0 | 0.00 | 0.27 | 0.00 | 92 | 1008.1 |
| 20260830095935 | 69 | 93 | 2.0 | 7.0 | 0.00 | 0.27 | 0.00 | 92 | 1008.1 |
| 20260830095431 | 69 | 86 | 2.0 | 6.0 | 0.00 | 0.28 | 0.00 | 92 | 1008.1 |
| 20260830094931 | 69 | 96 | 3.0 | 8.0 | 0.00 | 0.28 | 0.00 | 92 | 1007.9 |
| 20260830094430 | 69 | 99 | 3.0 | 8.0 | 0.00 | 0.28 | 0.00 | 91 | 1007.9 |
| 20260830093931 | 69 | 89 | 3.0 | 8.0 | 0.00 | 0.29 | 0.00 | 91 | 1007.8 |
| 20260830093431 | 69 | 80 | 2.0 | 8.0 | 0.00 | 0.29 | 0.00 | 91 | 1007.8 |
| 20260830092932 | 69 | 78 | 2.0 | 8.0 | 0.00 | 0.29 | 0.00 | 91 | 1007.9 |
| 20260830092430 | 69 | 74 | 2.0 | 6.0 | 0.00 | 0.29 | 0.00 | 91 | 1008.1 |
| 20260830091929 | 69 | 80 | 1.0 | 5.0 | 0.00 | 0.29 | 0.00 | 91 | 1008.2 |
| 20260830091429 | 69 | 78 | 2.0 | 5.0 | 0.00 | 0.29 | 0.00 | 91 | 1008.3 |
| 20260830090929 | 69 | 102 | 2.0 | 6.0 | 0.00 | 0.29 | 0.00 | 90 | 1008.3 |
| 20260830090427 | 69 | 71 | 2.0 | 6.0 | 0.00 | 0.29 | 0.00 | 91 | 1008.1 |
| 20260830085926 | 69 | 90 | 2.0 | 5.0 | 0.00 | 0.29 | 0.00 | 90 | 1008.1 |
| 20260830085429 | 69 | 86 | 1.0 | 5.0 | 0.00 | 0.29 | 0.00 | 90 | 1008.1 |
| 20260830084927 | 69 | 70 | 2.0 | 5.0 | 0.00 | 0.29 | 0.00 | 90 | 1008.2 |
| 20260830084420 | 69 | 88 | 2.0 | 5.0 | 0.00 | 0.29 | 0.00 | 90 | 1008.3 |
| 20260830083921 | 69 | 89 | 1.0 | 6.0 | 0.00 | 0.29 | 0.00 | 90 | 1008.2 |
| 20260830083422 | 69 | 88 | 1.0 | 6.0 | 0.00 | 0.29 | 0.00 | 90 | 1008.3 |
| 20260830082921 | 69 | 88 | 1.0 | 5.0 | 0.00 | 0.29 | 0.00 | 90 | 1008.3 |
| 20260830082643 | 69 | 88 | 2.0 | 5.0 | 0.00 | 0.29 | 0.00 | 90 | 1008.3 |
| 20260830082144 | 69 | 81 | 3.0 | 7.0 | 0.00 | 0.29 | 0.00 | 89 | 1008.2 |
| 20260830081422 | 69 | 77 | 2.0 | 7.0 | 0.00 | 0.29 | 0.00 | 89 | 1008.0 |
| 20260830080921 | 70 | 70 | 2.0 | 7.0 | 0.00 | 0.29 | 0.00 | 89 | 1008.0 |
| 20260830080433 | 70 | 75 | 2.0 | 7.0 | 0.00 | 0.29 | 0.00 | 89 | 1008.2 |
| 20260830075921 | 70 | 75 | 2.0 | 6.0 | 0.00 | 0.29 | 0.00 | 89 | 1008.2 |
| 20260830075418 | 70 | 82 | 3.0 | 7.0 | 0.00 | 0.29 | 0.00 | 89 | 1008.3 |
| 20260830074920 | 70 | 75 | 2.0 | 7.0 | 0.00 | 0.29 | 0.00 | 89 | 1008.4 |
| 20260830074646 | 70 | 80 | 1.0 | 5.0 | 0.00 | 0.29 | 0.00 | 89 | 1008.6 |
| 20260830073919 | 70 | 79 | 1.0 | 5.0 | 0.00 | 0.29 | 0.00 | 89 | 1008.8 |
| 20260830073418 | 70 | 77 | 2.0 | 8.0 | 0.00 | 0.29 | 0.00 | 89 | 1008.8 |
| 20260830072919 | 70 | 87 | 4.0 | 8.0 | 0.00 | 0.29 | 0.00 | 89 | 1008.5 |
| 20260830072640 | 70 | 80 | 3.0 | 7.0 | 0.00 | 0.29 | 0.00 | 89 | 1008.4 |
| 20260830071919 | 70 | 83 | 1.0 | 7.0 | 0.00 | 0.29 | 0.00 | 89 | 1008.6 |
| 20260830071419 | 70 | 88 | 1.0 | 5.0 | 0.00 | 0.29 | 0.00 | 88 | 1008.8 |
| 20260830070919 | 70 | 69 | 1.0 | 5.0 | 0.00 | 0.29 | 0.00 | 88 | 1008.9 |
| 20260830070419 | 70 | 95 | 2.0 | 6.0 | 0.00 | 0.29 | 0.00 | 88 | 1008.8 |
| 20260830070147 | 70 | 77 | 2.0 | 6.0 | 0.00 | 0.29 | 0.00 | 88 | 1008.7 |
| 20260830065420 | 70 | 71 | 3.0 | 7.0 | 0.00 | 0.29 | 0.00 | 88 | 1008.5 |
| 20260830064920 | 70 | 82 | 2.0 | 7.0 | 0.00 | 0.29 | 0.00 | 88 | 1008.6 |
| 20260830064422 | 70 | 81 | 2.0 | 6.0 | 0.00 | 0.29 | 0.00 | 88 | 1008.6 |
| 20260830064143 | 70 | 78 | 2.0 | 5.0 | 0.00 | 0.29 | 0.00 | 88 | 1008.7 |
| 20260830063418 | 70 | 82 | 2.0 | 5.0 | 0.00 | 0.29 | 0.00 | 88 | 1008.7 |
| 20260830063142 | 70 | 80 | 1.0 | 5.0 | 0.00 | 0.29 | 0.00 | 88 | 1008.8 |
| 20260830062418 | 70 | 77 | 2.0 | 5.0 | 0.00 | 0.29 | 0.00 | 88 | 1008.9 |
| 20260830061918 | 70 | 85 | 1.0 | 5.0 | 0.00 | 0.29 | 0.00 | 88 | 1009.0 |
| 20260830061420 | 70 | 86 | 1.0 | 2.0 | 0.00 | 0.29 | 0.00 | 88 | 1009.1 |
| 20260830060920 | 70 | 86 | 1.0 | 6.0 | 0.00 | 0.29 | 0.00 | 88 | 1009.2 |
| 20260830060417 | 70 | 86 | 1.0 | 6.0 | 0.00 | 0.29 | 0.00 | 88 | 1009.2 |
| 20260830055917 | 70 | 71 | 1.0 | 4.0 | 0.00 | 0.29 | 0.00 | 88 | 1009.2 |
| 20260830055418 | 71 | 78 | 1.0 | 4.0 | 0.00 | 0.29 | 0.00 | 88 | 1009.1 |
| 20260830055134 | 71 | 79 | 1.0 | 3.0 | 0.00 | 0.29 | 0.00 | 88 | 1009.2 |
| 20260830054413 | 71 | 84 | 1.0 | 3.0 | 0.00 | 0.29 | 0.00 | 88 | 1009.2 |
| 20260830053914 | 71 | 86 | 0.0 | 3.0 | 0.00 | 0.29 | 0.00 | 88 | 1009.2 |
| 20260830053412 | 71 | 114 | 0.0 | 3.0 | 0.00 | 0.29 | 0.00 | 88 | 1009.2 |
| 20260830052909 | 71 | 123 | 1.0 | 3.0 | 0.00 | 0.29 | 0.00 | 87 | 1009.1 |
| 20260830052633 | 71 | 82 | 1.0 | 4.0 | 0.00 | 0.29 | 0.00 | 87 | 1009.1 |
| 20260830052129 | 71 | 63 | 1.0 | 5.0 | 0.00 | 0.29 | 0.00 | 87 | 1009.3 |
| 20260830051420 | 71 | 92 | 1.0 | 6.0 | 0.00 | 0.29 | 0.00 | 87 | 1009.2 |
| 20260830050904 | 71 | 97 | 1.0 | 6.0 | 0.00 | 0.29 | 0.00 | 87 | 1009.2 |
| 20260830050850 | 71 | 73 | 1.0 | 5.0 | 0.00 | 0.29 | 0.00 | 87 | 1009.3 |
| 20260830045858 | 71 | 71 | 1.0 | 6.0 | 0.00 | 0.29 | 0.29 | 87 | 1009.3 |
| 20260830045620 | 71 | 84 | 1.0 | 6.0 | 0.00 | 0.29 | 0.29 | 87 | 1009.3 |
| 20260830044855 | 71 | 126 | 1.0 | 4.0 | 0.00 | 0.29 | 0.29 | 87 | 1009.4 |
| 20260830044353 | 71 | 82 | 1.0 | 4.0 | 0.00 | 0.29 | 0.29 | 87 | 1009.5 |
| 20260830043853 | 71 | 84 | 1.0 | 5.0 | 0.00 | 0.29 | 0.29 | 87 | 1009.5 |
| 20260830043353 | 71 | 83 | 1.0 | 5.0 | 0.00 | 0.29 | 0.29 | 87 | 1009.6 |
| 20260830042850 | 71 | 72 | 1.0 | 4.0 | 0.00 | 0.29 | 0.29 | 87 | 1009.5 |
| 20260830042610 | 71 | 80 | 1.0 | 3.0 | 0.00 | 0.29 | 0.29 | 87 | 1009.7 |
| 20260830041851 | 71 | 78 | 1.0 | 3.0 | 0.00 | 0.29 | 0.29 | 86 | 1009.7 |
| 20260830041349 | 71 | 84 | 1.0 | 3.0 | 0.00 | 0.29 | 0.29 | 86 | 1009.7 |
| 20260830040847 | 72 | 84 | 2.0 | 7.0 | 0.00 | 0.29 | 0.29 | 86 | 1009.7 |
| 20260830040606 | 72 | 103 | 2.0 | 7.0 | 0.00 | 0.29 | 0.29 | 86 | 1009.6 |
| 20260830035844 | 72 | 80 | 2.0 | 5.0 | 0.00 | 0.29 | 0.29 | 86 | 1009.7 |
| 20260830035604 | 72 | 81 | 2.0 | 6.0 | 0.00 | 0.29 | 0.29 | 86 | 1009.7 |
| 20260830034834 | 72 | 85 | 2.0 | 7.0 | 0.00 | 0.29 | 0.29 | 86 | 1009.7 |
| 20260830034554 | 72 | 84 | 2.0 | 7.0 | 0.00 | 0.29 | 0.29 | 86 | 1009.7 |
| 20260830033828 | 72 | 94 | 2.0 | 6.0 | 0.00 | 0.29 | 0.29 | 85 | 1009.7 |
| 20260830033327 | 72 | 71 | 2.0 | 6.0 | 0.00 | 0.29 | 0.29 | 85 | 1009.7 |
| 20260830032826 | 72 | 74 | 2.0 | 7.0 | 0.00 | 0.29 | 0.29 | 85 | 1009.8 |
| 20260830032321 | 72 | 81 | 2.0 | 8.0 | 0.00 | 0.29 | 0.29 | 85 | 1009.7 |
| 20260830032044 | 73 | 62 | 3.0 | 8.0 | 0.00 | 0.29 | 0.29 | 85 | 1009.8 |
| 20260830031323 | 73 | 70 | 3.0 | 8.0 | 0.00 | 0.29 | 0.29 | 85 | 1009.8 |
| 20260830030820 | 73 | 67 | 3.0 | 8.0 | 0.00 | 0.29 | 0.29 | 84 | 1009.7 |
| 20260830030321 | 73 | 93 | 2.0 | 7.0 | 0.00 | 0.29 | 0.29 | 84 | 1009.8 |
| 20260830025821 | 73 | 94 | 3.0 | 9.0 | 0.00 | 0.29 | 0.29 | 84 | 1009.7 |
| 20260830025551 | 73 | 92 | 3.0 | 9.0 | 0.00 | 0.29 | 0.29 | 84 | 1009.6 |
| 20260830024820 | 73 | 57 | 3.0 | 7.0 | 0.00 | 0.29 | 0.29 | 84 | 1009.5 |
| 20260830024320 | 73 | 78 | 3.0 | 7.0 | 0.00 | 0.29 | 0.29 | 83 | 1009.5 |
| 20260830023820 | 73 | 177 | 3.0 | 10.0 | 0.00 | 0.29 | 0.29 | 83 | 1009.5 |
| 20260830023317 | 73 | 88 | 3.0 | 10.0 | 0.00 | 0.29 | 0.29 | 83 | 1009.5 |
| 20260830022818 | 74 | 94 | 3.0 | 8.0 | 0.00 | 0.29 | 0.29 | 82 | 1009.5 |
| 20260830022315 | 74 | 94 | 2.0 | 7.0 | 0.00 | 0.29 | 0.29 | 82 | 1009.5 |
| 20260830021815 | 74 | 70 | 3.0 | 9.0 | 0.00 | 0.29 | 0.29 | 82 | 1009.5 |
| 20260830021313 | 74 | 90 | 4.0 | 10.0 | 0.00 | 0.29 | 0.29 | 82 | 1009.4 |
| 20260830021031 | 74 | 90 | 4.0 | 12.0 | 0.00 | 0.29 | 0.29 | 82 | 1009.3 |
| 20260830020309 | 74 | 82 | 4.0 | 12.0 | 0.00 | 0.29 | 0.29 | 81 | 1009.2 |
| 20260830015810 | 74 | 78 | 3.0 | 9.0 | 0.00 | 0.29 | 0.29 | 81 | 1009.2 |
| 20260830015312 | 75 | 88 | 3.0 | 9.0 | 0.00 | 0.29 | 0.29 | 81 | 1009.3 |
| 20260830014810 | 75 | 94 | 4.0 | 9.0 | 0.00 | 0.29 | 0.29 | 81 | 1009.2 |
| 20260830014536 | 75 | 81 | 3.0 | 9.0 | 0.00 | 0.29 | 0.29 | 80 | 1009.1 |
| 20260830013809 | 75 | 96 | 3.0 | 10.0 | 0.00 | 0.29 | 0.29 | 80 | 1009.2 |
| 20260830013308 | 75 | 74 | 3.0 | 10.0 | 0.00 | 0.29 | 0.29 | 80 | 1009.1 |
| 20260830012810 | 75 | 102 | 3.0 | 9.0 | 0.00 | 0.29 | 0.29 | 80 | 1008.9 |
| 20260830012309 | 75 | 108 | 2.0 | 9.0 | 0.00 | 0.29 | 0.29 | 79 | 1009.0 |
| 20260830011810 | 76 | 53 | 3.0 | 10.0 | 0.00 | 0.29 | 0.29 | 79 | 1008.9 |
| 20260830011748 | 76 | 96 | 3.0 | 10.0 | 0.00 | 0.29 | 0.29 | 78 | 1008.7 |
| 20260830011031 | 76 | 69 | 3.0 | 8.0 | 0.00 | 0.29 | 0.29 | 78 | 1008.8 |
| 20260830010522 | 76 | 86 | 3.0 | 8.0 | 0.00 | 0.29 | 0.29 | 77 | 1008.7 |
| 20260830005804 | 76 | 93 | 3.0 | 7.0 | 0.00 | 0.29 | 0.29 | 77 | 1008.6 |
| 20260830005307 | 76 | 77 | 3.0 | 9.0 | 0.00 | 0.29 | 0.29 | 77 | 1008.8 |
| 20260830004806 | 77 | 76 | 3.0 | 9.0 | 0.00 | 0.29 | 0.29 | 76 | 1008.8 |